STARLINK-35874

Last updated on Fri Dec 19 2025 00:02:08 GMT+0000 (Coordinated Universal Time)

1 66962U 25288D 25352.58336806 -.01239958 00000+0 -54847-2 0 9998 2 66962 43.0010 131.4087 0001513 271.5532 298.6105 15.85999027 2770
UTC large
Height (km)
Speed (km/s)
/
Latitude / Longitude
Inclination (degrees)
Orbital Period (minutes)
Azimuth
Elevation
Range (km)
Doppler Factor

Next 0 passes for location: London (51.5072 / 0.1276)

Sorry there are no passes over London.